全部
Billabong Stn Airport YBST 天氣
There is no TAF data available at YBST or any nearby airports.
There is no METAR data available at YBST. Showing METAR data for YWWL (23 mi SW).
WWY近期METAR歷史資料(YBST無資料)
| Date | Time (AEST) | Flight Rules | Wind Dir. | Speed | Type | Height AGL (ft) | Visibility | Temp (°C) | Temp (°F) | Dew Point (°C) | Dew Point (°F) | Rel. Humid. | Pressure | Density Altitude | Remarks |
|---|---|---|---|---|---|---|---|---|---|---|---|---|---|---|---|
| 05-五月 | 07:00 | n/a | 270° | 6 kt | Missing | 8° | 46° | 7° | 44° | 93% | 1020 mb | -182 ft | |||
| 05-五月 | 06:00 | n/a | 260° | 3 kt | Missing | 7° | 44° | 6° | 42° | 93% | 1019 mb | -272 ft | |||
| 05-五月 | 05:00 | n/a | 300° | 4 kt | Missing | 8° | 46° | 7° | 44° | 93% | 1019 mb | -152 ft | |||
| 05-五月 | 04:00 | n/a | Calm | Missing | 8° | 46° | 6° | 42° | 87% | 1018 mb | -123 ft | ||||
| 05-五月 | 03:00 | n/a | 310° | 3 kt | Missing | 8° | 46° | 7° | 44° | 93% | 1018 mb | -123 ft | |||
| 05-五月 | 02:00 | n/a | 300° | 1 kt | Missing | 9° | 48° | 7° | 44° | 87% | 1018 mb | -3 ft | |||
| 05-五月 | 01:00 | n/a | 300° | 4 kt | Missing | 10° | 50° | 6° | 42° | 76% | 1018 mb | 117 ft | |||
| 05-五月 | 00:00 | n/a | 300° | 5 kt | Missing | 12° | 53° | 7° | 44° | 71% | 1018 mb | 357 ft | |||
| 04-五月 | 23:00 | n/a | 290° | 5 kt | Missing | 11° | 51° | 7° | 44° | 76% | 1018 mb | 237 ft | |||
| 04-五月 | 22:00 | n/a | 290° | 4 kt | Missing | 11° | 51° | 8° | 46° | 82% | 1019 mb | 208 ft | |||
| 04-五月 | 21:00 | n/a | 290° | 5 kt | Missing | 12° | 53° | 7° | 44° | 71% | 1018 mb | 357 ft | |||
| 04-五月 | 20:00 | n/a | Calm | Missing | 11° | 51° | 9° | 48° | 87% | 1018 mb | 237 ft | ||||
| 04-五月 | 19:00 | n/a | 330° | 3 kt | Missing | 12° | 53° | 9° | 48° | 82% | 1017 mb | 387 ft | |||
| 04-五月 | 18:00 | n/a | 290° | 4 kt | Missing | 15° | 59° | 7° | 44° | 59% | 1016 mb | 777 ft | |||
| 04-五月 | 17:00 | n/a | 290° | 8 kt | Missing | 18° | 64° | 7° | 44° | 49% | 1016 mb | 1,137 ft | |||
| 04-五月 | 16:00 | n/a | 290° | 6 kt | Missing | 20° | 68° | 8° | 46° | 46% | 1015 mb | 1,406 ft | |||
| 04-五月 | 15:00 | n/a | 330° | 7 kt | Missing | 20° | 68° | 8° | 46° | 46% | 1015 mb | 1,406 ft | |||
| 04-五月 | 14:00 | n/a | 310° | 7 kt | Missing | 20° | 68° | 9° | 48° | 49% | 1015 mb | 1,406 ft | |||
| 04-五月 | 13:00 | n/a | 290° | 5 kt | Missing | 19° | 66° | 10° | 50° | 56% | 1015 mb | 1,286 ft | |||
| 04-五月 | 12:00 | n/a | 300° | 6 kt | Missing | 18° | 64° | 11° | 51° | 64% | 1016 mb | 1,137 ft | |||
| 04-五月 | 11:00 | n/a | 290° | 4 kt | Missing | 16° | 60° | 12° | 53° | 77% | 1017 mb | 867 ft | |||
| 04-五月 | 10:00 | n/a | 320° | 3 kt | Missing | 15° | 59° | 13° | 55° | 88% | 1017 mb | 747 ft | |||
| 04-五月 | 09:00 | n/a | Calm | Missing | 13° | 55° | 12° | 53° | 94% | 1017 mb | 507 ft | ||||
| 04-五月 | 08:00 | n/a | 310° | 3 kt | Missing | 13° | 55° | 12° | 53° | 94% | 1017 mb | 507 ft |
登入
| 您的瀏覽器不支援. 升級您的瀏覽器 |
